Marion, VA

4:28 AM EST on November 19, 2017 (GMT -0500)
Mountain Empire

Weather History for KMKJ - January, 2014

Change the Weather History Date:

Thursday, January 30, 2014

  Actual Average (KBLF) Record (KBLF)
Temperature  
Mean Temperature 16 °F -  
Max Temperature 35 °F 40 °F 69 °F (2002)
Min Temperature -3 °F 25 °F -11 °F (1966)
Degree Days  
Heating Degree Days 49    
Moisture  
Dew Point 3 °F    
Average Humidity 59    
Maximum Humidity 83    
Minimum Humidity 28    
Precipitation  
Precipitation 0.00 in - - ()
Sea Level Pressure  
Sea Level Pressure 30.18 in    
Wind  
Wind Speed 3 mph (ENE)    
Max Wind Speed 10 mph    
Max Gust Speed -    
Visibility 10 miles    
Events      
Averages and records for this station are not official NWS values.
T = Trace of Precipitation, MM = Missing Value Source: NWS Daily Summary

Daily Weather History Graph

Daily Weather History Graph

Search for Another Location

Airport or City:

Trip Planner

Search our weather history database for the weather conditions in past years. The results will help you decide how hot, cold, wet, or windy it might be!

Date:

Astronomy

Jan. 30, 2014 Rise Set
Actual Time 7:29 AM EST 5:48 PM EST
Civil Twilight 7:01 AM EST 6:16 PM EST
Nautical Twilight 6:30 AM EST 6:47 PM EST
Astronomical Twilight 6:00 AM EST 7:17 PM EST
Moon 6:55 AM EST (1/30) 5:57 PM EST (1/30)
Length of Visible Light 11h 14m
Length of Day
10h 19m
Waning Crescent, 0% of the Moon is Illuminated
Jan 30
Waning Crescent
Jan 30
New
Feb 6
First Quarter
Feb 14
Full
Feb 22
Last Quarter

Hourly Weather History & Observations

Time (EST) Temp. Windchill Dew Point Humidity Pressure Visibility Wind Dir Wind Speed Gust Speed Precip Events Conditions
12:15 AM 7.3 °F -4.1 °F -0.9 °F 69% 30.23 in 10.0 mi West 6.9 mph - N/A   Clear
12:35 AM 4.6 °F -6.0 °F -1.7 °F 75% 30.24 in 10.0 mi West 5.8 mph - N/A   Clear
12:55 AM 4.1 °F -6.7 °F -2.2 °F 75% 30.23 in 10.0 mi West 5.8 mph - N/A   Clear
1:15 AM 3.6 °F - -2.0 °F 78% 30.22 in 10.0 mi Calm Calm - N/A   Clear
1:35 AM 2.5 °F - -2.4 °F 80% 30.22 in 10.0 mi Calm Calm - N/A   Clear
1:55 AM 1.2 °F - -3.1 °F 82% 30.22 in 10.0 mi Calm Calm - N/A   Clear
2:15 AM 1.0 °F - -2.9 °F 83% 30.23 in 10.0 mi Calm Calm - N/A   Clear
2:35 AM 0.3 °F - -3.8 °F 83% 30.24 in 10.0 mi Calm Calm - N/A   Clear
2:55 AM -0.2 °F - -4.7 °F 81% 30.24 in 4.0 mi Calm Calm - N/A   Haze
3:15 AM -0.4 °F - -4.5 °F 83% 30.24 in 10.0 mi Calm Calm - N/A   Clear
3:35 AM -1.3 °F - -5.6 °F 82% 30.25 in 10.0 mi Calm Calm - N/A   Clear
3:55 AM -1.8 °F - -6.5 °F 80% 30.25 in 10.0 mi Calm Calm - N/A   Clear
4:15 AM -2.2 °F - -6.5 °F 82% 30.25 in 10.0 mi Calm Calm - N/A   Clear
4:35 AM -1.7 °F - -6.2 °F 81% 30.25 in 10.0 mi Calm Calm - N/A   Clear
4:55 AM -2.4 °F - -6.9 °F 81% 30.25 in 10.0 mi Calm Calm - N/A   Clear
5:15 AM -1.8 °F - -5.8 °F 83% 30.25 in 10.0 mi Calm Calm - N/A   Clear
5:35 AM -3.3 °F - -7.6 °F 82% 30.25 in 10.0 mi Calm Calm - N/A   Clear
5:55 AM -2.9 °F - -7.4 °F 81% 30.25 in 10.0 mi Calm Calm - N/A   Clear
6:15 AM -3.8 °F - -8.7 °F 80% 30.25 in 10.0 mi Calm Calm - N/A   Clear
6:35 AM -2.6 °F -10.8 °F -7.1 °F 81% 30.25 in 10.0 mi ESE 3.5 mph - N/A   Clear
6:55 AM -1.7 °F - -6.0 °F 82% 30.25 in 10.0 mi Calm Calm - N/A   Clear
7:15 AM -2.0 °F - -6.3 °F 82% 30.25 in 10.0 mi Calm Calm - N/A   Clear
7:35 AM -1.5 °F - -5.8 °F 82% 30.25 in 10.0 mi Calm Calm - N/A   Clear
7:55 AM -1.7 °F - -6.0 °F 82% 30.25 in 10.0 mi Calm Calm - N/A   Clear
8:15 AM -0.0 °F - -4.4 °F 82% 30.25 in 10.0 mi Calm Calm - N/A   Clear
8:35 AM 1.8 °F - -2.7 °F 81% 30.25 in 10.0 mi Calm Calm - N/A   Clear
8:55 AM 5.7 °F - 0.9 °F 80% 30.25 in 10.0 mi Calm Calm - N/A   Clear
9:15 AM 10.0 °F -0.9 °F 2.7 °F 72% 30.25 in 10.0 mi ENE 6.9 mph - N/A   Clear
9:35 AM 11.5 °F 3.5 °F 2.1 °F 66% 30.26 in 10.0 mi ENE 4.6 mph - N/A   Clear
9:55 AM 14.4 °F 5.5 °F 2.3 °F 59% 30.26 in 10.0 mi ESE 5.8 mph - N/A   Clear
10:15 AM 15.8 °F 6.1 °F 2.7 °F 56% 30.26 in 10.0 mi ENE 6.9 mph - N/A   Clear
10:35 AM 16.7 °F 7.2 °F 0.1 °F 48% 30.26 in 10.0 mi East 6.9 mph - N/A   Clear
10:55 AM 18.0 °F 8.7 °F 3.4 °F 53% 30.26 in 10.0 mi ENE 6.9 mph - N/A   Clear
11:15 AM 19.2 °F 11.3 °F 3.2 °F 50% 30.25 in 10.0 mi ENE 5.8 mph - N/A   Clear
11:35 AM 20.7 °F 11.9 °F 3.7 °F 48% 30.24 in 10.0 mi ENE 6.9 mph - N/A   Clear
11:55 AM 21.9 °F 11.7 °F 4.8 °F 48% 30.22 in 10.0 mi East 9.2 mph - N/A   Clear
12:15 PM 23.5 °F 15.4 °F 5.9 °F 47% 30.20 in 10.0 mi East 6.9 mph - N/A   Clear
12:35 PM 25.3 °F 18.5 °F 7.0 °F 46% 30.20 in 10.0 mi East 5.8 mph - N/A   Clear
12:55 PM 27.3 °F 20.9 °F 7.0 °F 42% 30.19 in 10.0 mi East 5.8 mph - N/A   Clear
1:15 PM 28.8 °F 23.7 °F 7.9 °F 41% 30.18 in 10.0 mi NE 4.6 mph - N/A   Clear
1:35 PM 29.8 °F 26.3 °F 7.3 °F 39% 30.17 in 10.0 mi ENE 3.5 mph - N/A   Clear
1:55 PM 31.3 °F 27.9 °F 7.9 °F 37% 30.16 in 10.0 mi East 3.5 mph - N/A   Clear
2:15 PM 32.7 °F 29.6 °F 10.0 °F 39% 30.15 in 10.0 mi ENE 3.5 mph - N/A   Clear
2:35 PM 33.3 °F - 6.8 °F 33% 30.14 in 10.0 mi Calm Calm - N/A   Clear
2:55 PM 33.8 °F 30.8 °F 5.2 °F 30% 30.12 in 10.0 mi East 3.5 mph - N/A   Clear
3:15 PM 34.7 °F 30.6 °F 4.6 °F 28% 30.11 in 10.0 mi East 4.6 mph - N/A   Clear
3:35 PM 35.1 °F 32.2 °F 6.3 °F 30% 30.10 in 10.0 mi East 3.5 mph - N/A   Clear
3:55 PM 35.1 °F 30.1 °F 6.8 °F 31% 30.09 in 10.0 mi ENE 5.8 mph - N/A   Clear
4:15 PM 35.2 °F 29.5 °F 8.4 °F 33% 30.08 in 10.0 mi ENE 6.9 mph - N/A   Clear
4:35 PM 35.6 °F 29.2 °F 7.0 °F 30% 30.08 in 10.0 mi ENE 8.1 mph - N/A   Clear
4:55 PM 35.6 °F 31.7 °F 6.4 °F 30% 30.09 in 10.0 mi East 4.6 mph - N/A   Clear
5:15 PM 34.9 °F 32.0 °F 7.7 °F 32% 30.09 in 10.0 mi ENE 3.5 mph - N/A   Clear
5:35 PM 33.8 °F 27.7 °F 7.7 °F 34% 30.09 in 10.0 mi NE 6.9 mph - N/A   Clear
5:55 PM 32.2 °F 25.0 °F 7.9 °F 36% 30.07 in 10.0 mi East 8.1 mph - N/A   Clear
6:15 PM 30.9 °F 22.2 °F 9.5 °F 41% 30.09 in 10.0 mi NE 10.4 mph - N/A   Clear
6:35 PM 30.2 °F 22.6 °F 7.9 °F 39% 30.09 in 10.0 mi ENE 8.1 mph - N/A   Clear
6:55 PM 28.4 °F 21.2 °F 9.1 °F 44% 30.09 in 10.0 mi East 6.9 mph - N/A   Clear
7:15 PM 28.2 °F 19.5 °F 8.8 °F 44% 30.10 in 10.0 mi NE 9.2 mph - N/A   Clear
7:35 PM 26.4 °F 20.9 °F 9.7 °F 49% 30.12 in 10.0 mi ENE 4.6 mph - N/A   Clear
7:55 PM 25.7 °F 21.5 °F 9.3 °F 50% 30.13 in 10.0 mi ENE 3.5 mph - N/A   Clear
8:15 PM 25.3 °F 18.5 °F 9.5 °F 51% 30.13 in 10.0 mi NE 5.8 mph - N/A   Clear
8:35 PM 25.7 °F 19.0 °F 8.6 °F 48% 30.14 in 10.0 mi NNE 5.8 mph - N/A   Clear
8:55 PM 25.3 °F 17.6 °F 8.2 °F 48% 30.13 in 10.0 mi NE 6.9 mph - N/A   Clear
9:15 PM 24.8 °F - 8.4 °F 50% 30.14 in 10.0 mi Calm Calm - N/A   Clear
9:35 PM 23.9 °F 19.5 °F 8.6 °F 52% 30.13 in 10.0 mi ESE 3.5 mph - N/A   Clear
9:55 PM 23.7 °F - 8.4 °F 52% 30.13 in 10.0 mi Calm Calm - N/A   Clear
10:15 PM 22.8 °F - 9.5 °F 57% 30.13 in 10.0 mi Calm Calm - N/A   Clear
10:35 PM 23.0 °F 18.4 °F 8.8 °F 55% 30.13 in 10.0 mi ESE 3.5 mph - N/A   Clear
10:55 PM 23.0 °F - 8.6 °F 54% 30.13 in 10.0 mi Calm Calm - N/A   Clear
11:15 PM 22.1 °F - 9.9 °F 59% 30.12 in 10.0 mi Calm Calm - N/A   Clear
11:35 PM 21.2 °F - 10.4 °F 63% 30.13 in 10.0 mi Calm Calm - N/A   Clear
11:55 PM 20.5 °F - 11.3 °F 68% 30.12 in 10.0 mi Calm Calm - N/A   Clear